Location: Boiro
(42.6475°N, 8.8834°W)
Time: 02:40:31
(UTC+01:00)

Explorer 7 - Pass Details

Date: 04 December 2021
Orbit: 483 x 674 km, 50.3° (Epoch: 18 January)

Event Time Altitude Azimuth Distance (km) Brightness Sun altitude
Exits shadow 07:50:43 - 251° (WSW) 2,108 9.3 -10.5°
Reaches altitude 10° 07:51:16 10° 252° (WSW) 1,897 9.1 -10.4°
Maximum altitude 07:55:33 62° 334° (NNW) 631 6.9 -9.7°
Drops below altitude 10° 07:59:34 10° 55° (NE) 1,786 9.9 -9.0°
Sets 08:01:45 0° 59° (ENE) 2,648 10.9 -8.6°
